QZS-3 (MICHIBIKI-3)

Last updated on Tue Aug 25 2026 00:03:00 GMT+0000 (Coordinated Universal Time)

1 42917U 17048A 26236.50119034 -.00000351 00000+0 00000+0 0 9993 2 42917 0.0670 210.3719 0002293 293.8976 135.9788 1.00273335 32944
UTC large
Height (km)
Speed (km/s)
/
Latitude / Longitude
Inclination (degrees)
Orbital Period (minutes)
Azimuth
Elevation
Range (km)
Doppler Factor

Next 0 passes for location: London (51.5072 / 0.1276)

No passes found over London.
QZS-3 (MICHIBIKI-3)